This is the latest recevied weather packets stored in our database for station/object WW5JC. If no packets are shown the sender has not sent any weather packets the latest 10 day(s).
| Time | Temp. | Humidity | Pressure | Rain* | Wind** | Luminosity | Snow |
|---|---|---|---|---|---|---|---|
| 1777783602 | 12.78° C | 91% | 1021.7 hPa | 0 mm | - | 0 W/m² | - |
| 1777783300 | 12.78° C | 90% | 1021.7 hPa | 0 mm | - | 0 W/m² | - |
| 1777782997 | 12.78° C | 90% | 1021.7 hPa | 0 mm | - | 0 W/m² | - |
| 1777782694 | 13.33° C | 89% | 1021.8 hPa | 0 mm | - | 0 W/m² | - |
| 1777782390 | 13.33° C | 90% | 1021.8 hPa | 0 mm | - | 0 W/m² | - |
| 1777782087 | 13.33° C | 89% | 1021.8 hPa | 0 mm | - | 0 W/m² | - |
| 1777781783 | 13.33° C | 90% | 1021.6 hPa | 0 mm | - | 0 W/m² | - |
| 1777781481 | 13.33° C | 89% | 1021.6 hPa | 0 mm | - | 0 W/m² | - |
| 1777781178 | 13.33° C | 88% | 1021.2 hPa | 0 mm | - | 0 W/m² | - |
| 1777780875 | 13.33° C | 88% | 1021.5 hPa | 0 mm | - | 0 W/m² | - |
| 1777780572 | 13.33° C | 88% | 1021.7 hPa | 0 mm | - | 0 W/m² | - |
| 1777780269 | 13.33° C | 89% | 1021.7 hPa | 0 mm | - | 0 W/m² | - |
| 1777779967 | 13.33° C | 88% | 1021.6 hPa | 0 mm | - | 0 W/m² | - |
| 1777779664 | 13.89° C | 87% | 1021.6 hPa | 0 mm | - | 0 W/m² | - |
| 1777779360 | 13.33° C | 86% | 1021.5 hPa | 0 mm | - | 0 W/m² | - |
| 1777779059 | 13.89° C | 86% | 1021.6 hPa | 0 mm | - | 0 W/m² | - |
| 1777778757 | 13.89° C | 85% | 1021.5 hPa | 0 mm | - | 0 W/m² | - |
| 1777778454 | 13.89° C | 86% | 1021.5 hPa | 0 mm | - | 0 W/m² | - |
| 1777778152 | 14.44° C | 86% | 1021.7 hPa | 0 mm | - | 0 W/m² | - |
| 1777777850 | 13.89° C | 86% | 1021.5 hPa | 0 mm | - | 0 W/m² | - |
| 1777777545 | 14.44° C | 86% | 1021.7 hPa | 0 mm | - | 0 W/m² | - |
| 1777777243 | 14.44° C | 85% | 1021.4 hPa | 0 mm | - | 0 W/m² | - |
| 1777776939 | 14.44° C | 84% | 1021.4 hPa | 0 mm | - | 0 W/m² | - |
| 1777776637 | 14.44° C | 84% | 1021.2 hPa | 0 mm | - | 0 W/m² | - |
| 1777776333 | 15° C | 84% | 1021 hPa | 0 mm | - | 0 W/m² | - |
* Rain latest hour (hover to see other rain measurements)
** Current wind speed in m/s (hover to see current wind gust speed)